Volver al catálogo

DMSP 5D-2 F13 DEB

ActivoSSO
NORAD 40577·DEBRIS·🇺🇸 United States

Lanzado Mar 24, 1995 desde Vandenberg Space Force Base

Loading…

Próximos Pases (próximas 24 horas)

TLE

ActualizadoSource: Space-Track

Época: Sep 14, 2026, 14:45 UTC

1 40577U 95015EL  26257.61475136  .00004405  00000-0  10688-2 0  9996
2 40577  98.6548 311.7221 0011258 238.0285 121.9816 14.53403942596572

Sigue DMSP 5D-2 F13 DEB en tiempo real con AllMySat

Download on the App Store